This demonstration page uses our WeatherBlox Daily Observations layout. Learn more.

Left ArrowRight Arrow

34.74481, -87.66753

Hourly Observations for March 24, 2022

Temp ( °F °C ) Dew Point ( °F °C ) Humidity (%) Winds ( mph kmh ) Pressure ( in mb ) Visibility ( mi km ) Precip ( " mm )
12:53 am 00:53 Clear 42 5.6 39 3.9 89 89 SSE 6 9 29.95 1014 10 16 0.00 0.00
1:53 am 01:53 Clear 43 6.1 38 3.3 82 82 SE 3 6 29.95 1014 10 16 0.00 0.00
2:53 am 02:53 Clear 42 5.6 39 3.9 89 89 Calm 29.93 1014 10 16 0.00 0.00
3:53 am 03:53 Clear 42 5.6 39 3.9 89 89 Calm 29.93 1013 10 16 0.00 0.00
4:53 am 04:53 Clear 42 5.6 40 4.4 92 92 ESE 3 6 29.90 1012 10 16 0.00 0.00
5:53 am 05:53 Clear 42 5.6 39 3.9 89 89 ESE 3 6 29.91 1013 10 16 0.00 0.00
6:53 am 06:53 Sunny 42 5.6 39 3.9 89 89 S 3 6 29.91 1013 10 16 0.00 0.00
7:53 am 07:53 Sunny 44 6.7 41 5 89 89 Calm 29.93 1014 10 16 0.00 0.00
8:53 am 08:53 Sunny 51 10.6 42 5.6 71 71 WSW 6 9 29.93 1014 10 16 0.00 0.00
9:53 am 09:53 Sunny 57 13.9 36 2.2 45 45 W 16 26 29.93 1014 10 16 0.00 0.00
10:53 am 10:53 Sunny 58 14.4 29 -1.7 33 33 WSW 23 37 29.93 1014 10 16 0.00 0.00
11:53 am 11:53 Sunny 62 16.7 31 -0.6 31 31 W 21 33 29.92 1013 10 16 0.00 0.00
12:53 pm 12:53 Mostly Sunny 64 17.8 32 0 30 30 WSW 30 48 29.90 1013 10 16 0.00 0.00
1:53 pm 13:53 Mostly Cloudy 62 16.7 32 0 32 32 W 20 31 29.88 1012 10 16 0.00 0.00
2:53 pm 14:53 Mostly Sunny 64 17.8 32 0 30 30 W 20 31 29.86 1011 10 16 0.00 0.00
3:53 pm 15:53 Partly Cloudy 64 17.8 33 0.6 32 32 WNW 17 28 29.85 1011 10 16 0.00 0.00
4:53 pm 16:53 Mostly Cloudy 63 17.2 34 1.1 34 34 W 17 28 29.85 1011 10 16 0.00 0.00
5:53 pm 17:53 Mostly Sunny 61 16.1 33 0.6 35 35 W 15 24 29.86 1011 10 16 0.00 0.00
6:53 pm 18:53 Sunny 58 14.4 34 1.1 41 41 W 8 13 29.86 1011 10 16 0.00 0.00
7:53 pm 19:53 Clear 53 11.7 34 1.1 48 48 W 5 7 29.88 1012 10 16 0.00 0.00
8:53 pm 20:53 Clear 54 12.2 34 1.1 47 47 NW 8 13 29.88 1012 10 16 0.00 0.00
9:53 pm 21:53 Clear 53 11.7 34 1.1 48 48 NW 8 13 29.91 1013 10 16 0.00 0.00
10:53 pm 22:53 Cloudy 52 11.1 35 1.7 53 53 NNW 5 7 29.93 1013 10 16 0.00 0.00
11:53 pm 23:53 Cloudy 51 10.6 37 2.8 59 59 Calm 29.92 1013 10 16 0.00 0.00

Powered by AerisWeather